DW5310 Weather Reports


time (UTC)temp
F
wind
direction
speed
knots
gust
knots
rain 1hr
in
rain 24hr
in
rain mn
in
humidity
%
barometer
mb
20260508014504 66 54 0.0 0.0 0.00 0.00 0.00 44 1014.5
20260508014004 66 35 0.0 0.0 0.00 0.00 0.00 44 1014.5
20260508013005 66 305 0.0 0.0 0.00 0.00 0.00 44 1015.5
20260508012505 67 305 0.0 0.0 0.00 0.00 0.00 44 1015.5
20260508012004 67 305 0.0 2.6 0.00 0.00 0.00 44 1015.5
20260508011504 67 305 0.0 2.6 0.00 0.00 0.00 44 1015.5
20260508011004 67 76 0.0 0.0 0.00 0.00 0.00 44 1015.5
20260508010505 67 58 0.0 0.0 0.00 0.00 0.00 44 1015.5
20260508010005 67 35 0.0 1.7 0.00 0.00 0.00 44 1015.5
20260508005504 67 43 0.9 4.3 0.00 0.00 0.00 44 1015.5
20260508004504 67 25 0.0 0.0 0.00 0.00 0.00 44 1015.5
20260508004004 68 202 0.0 0.0 0.00 0.00 0.00 44 1015.5
20260508003005 68 35 0.0 0.0 0.00 0.00 0.00 44 1015.5
20260508002504 68 119 0.0 0.0 0.00 0.00 0.00 43 1015.5
20260508002004 68 91 0.0 0.0 0.00 0.00 0.00 43 1015.5
20260508000004 69 305 0.0 0.0 0.00 0.00 0.00 42 1016.5
20260507235504 68 305 0.0 0.0 0.00 0.00 0.00 43 1016.5
20260507235004 68 260 0.0 0.0 0.00 0.00 0.00 42 1016.5
20260507234504 69 125 0.0 0.0 0.00 0.00 0.00 43 1016.5
20260507233004 69 225 0.0 0.0 0.00 0.00 0.00 43 1016.5
20260507232503 69 305 0.0 0.0 0.00 0.00 0.00 43 1016.5
20260507231504 69 136 0.0 0.0 0.00 0.00 0.00 43 1016.5
20260507231004 69 305 0.0 1.7 0.00 0.00 0.00 44 1016.5
20260507230504 70 36 0.0 1.7 0.00 0.00 0.00 44 1016.5
20260507230005 70 129 0.0 0.0 0.00 0.00 0.00 44 1016.5
20260507225004 70 226 0.0 0.0 0.00 0.00 0.00 45 1016.5
20260507224004 69 185 0.0 0.0 0.00 0.00 0.00 45 1015.5
20260507223004 69 69 0.0 0.0 0.00 0.00 0.00 47 1016.5
20260507222505 69 247 0.0 5.2 0.00 0.00 0.00 46 1016.5
20260507222004 69 165 0.9 5.2 0.00 0.00 0.00 47 1016.5
20260507221504 69 291 0.0 1.7 0.00 0.00 0.00 47 1016.5
20260507221005 68 35 0.0 5.2 0.00 0.00 0.00 47 1016.5
20260507220505 69 86 0.0 5.2 0.00 0.00 0.00 48 1016.5
20260507220004 69 35 0.0 5.2 0.00 0.00 0.00 48 1016.5
20260507215005 68 275 0.0 0.0 0.00 0.00 0.00 48 1016.5
20260507214503 68 283 0.0 1.7 0.00 0.00 0.00 49 1016.5
20260507214004 68 215 0.0 1.7 0.00 0.00 0.00 48 1016.5
20260507213004 67 251 0.0 1.7 0.00 0.00 0.00 50 1017.5
20260507212504 67 350 0.0 1.7 0.00 0.00 0.00 51 1017.5
20260507211504 66 109 0.0 1.7 0.00 0.00 0.00 50 1017.5
20260507211003 67 235 0.0 0.0 0.00 0.00 0.00 50 1017.5
20260507210005 66 282 0.0 5.2 0.00 0.00 0.00 53 1017.5
20260507205504 66 316 0.0 6.1 0.00 0.00 0.00 54 1017.5
20260507205004 66 305 0.0 6.1 0.00 0.00 0.00 54 1017.5
20260507204004 65 306 0.9 5.2 0.00 0.00 0.00 54 1017.5
20260507203503 65 73 1.7 5.2 0.00 0.00 0.00 57 1017.5
20260507202503 64 289 0.9 6.1 0.00 0.00 0.00 57 1017.5
20260507202004 64 305 0.0 6.1 0.00 0.00 0.00 59 1017.5
20260507201504 64 194 0.9 5.2 0.00 0.00 0.00 59 1017.5
20260507201003 63 230 0.0 5.2 0.00 0.00 0.00 59 1017.5
20260507200503 63 110 2.6 5.2 0.00 0.00 0.00 58 1017.5
20260507195504 63 259 0.0 1.7 0.00 0.00 0.00 61 1017.5
20260507195004 63 215 0.0 1.7 0.00 0.00 0.00 62 1017.5
20260507194504 63 228 0.0 4.3 0.00 0.00 0.00 61 1017.5
20260507194004 61 94 0.0 6.1 0.00 0.00 0.00 62 1017.5
20260507193504 61 103 1.7 6.1 0.00 0.00 0.00 61 1017.5
20260507193007 62 85 1.7 6.1 0.00 0.00 0.00 63 1018.5
20260507192507 62 226 1.7 5.2 0.00 0.00 0.00 63 1018.5
20260507192006 61 148 0.0 4.3 0.00 0.00 0.00 63 1018.5
20260507191506 61 69 0.0 7.0 0.00 0.00 0.00 64 1018.5
20260507191007 61 168 0.9 7.0 0.00 0.00 0.00 64 1018.5
20260507190507 60 143 0.9 6.1 0.00 0.00 0.00 64 1018.5
20260507190007 60 165 0.9 6.1 0.00 0.00 0.00 66 1018.5
20260507185508 60 296 0.0 5.2 0.00 0.00 0.00 65 1018.5
20260507185007 60 218 1.7 5.2 0.00 0.00 0.00 66 1018.5
20260507184506 59 107 0.0 2.6 0.00 0.00 0.00 66 1018.5
20260507184006 59 238 0.0 2.6 0.00 0.00 0.00 67 1018.5
20260507183506 59 273 0.9 7.0 0.00 0.00 0.00 68 1018.5
20260507183006 59 119 2.6 7.0 0.00 0.00 0.00 68 1018.5
20260507182007 58 196 0.0 5.2 0.00 0.00 0.00 68 1018.5
20260507181506 58 307 0.9 4.3 0.00 0.00 0.00 69 1018.5
20260507181006 58 145 0.0 1.7 0.00 0.00 0.00 69 1018.5
20260507180506 57 282 0.0 4.3 0.00 0.00 0.00 69 1018.5
20260507180006 58 158 0.9 4.3 0.00 0.00 0.00 69 1018.5
20260507175507 57 248 0.0 1.7 0.00 0.00 0.00 70 1018.5
20260507175008 57 56 0.0 4.3 0.00 0.00 0.00 70 1018.5
20260507174506 57 127 0.0 4.3 0.00 0.00 0.00 70 1018.5
20260507174006 57 83 0.0 4.3 0.00 0.00 0.00 71 1018.5
20260507173507 56 80 0.9 5.2 0.00 0.00 0.00 71 1018.5
20260507173006 56 301 0.9 5.2 0.00 0.00 0.00 71 1018.5
20260507172506 56 35 0.9 5.2 0.00 0.00 0.00 72 1018.5
20260507172007 55 329 0.9 5.2 0.00 0.00 0.00 71 1018.5
20260507171506 55 173 0.0 7.0 0.00 0.00 0.00 72 1017.5
20260507171006 55 42 1.7 7.0 0.00 0.00 0.00 72 1017.5
20260507170507 55 72 0.0 7.0 0.00 0.00 0.00 73 1017.5
20260507170006 55 122 1.7 7.0 0.00 0.00 0.00 74 1018.5
20260507165506 55 18 0.0 4.3 0.00 0.00 0.00 74 1018.5
20260507165006 54 45 0.9 5.2 0.00 0.00 0.00 73 1018.5
20260507164506 53 205 0.9 5.2 0.00 0.00 0.00 74 1018.5
20260507164006 54 116 0.0 5.2 0.00 0.00 0.00 74 1018.5
20260507163506 53 305 0.0 1.7 0.00 0.00 0.00 74 1018.5
20260507163006 53 102 0.0 1.7 0.00 0.00 0.00 74 1018.5
20260507162506 53 167 0.0 1.7 0.00 0.00 0.00 75 1018.5
20260507162006 52 110 0.0 1.7 0.00 0.00 0.00 74 1018.5
20260507161506 52 66 0.0 1.7 0.00 0.00 0.00 74 1018.5
20260507160506 52 335 0.0 0.0 0.00 0.00 0.00 74 1018.5
20260507155006 52 66 0.0 0.0 0.00 0.00 0.00 75 1018.5
20260507154506 52 10 0.0 5.2 0.00 0.00 0.00 75 1018.5
20260507154008 52 38 0.9 5.2 0.00 0.00 0.00 76 1018.5
20260507153506 51 42 0.0 0.0 0.00 0.00 0.00 76 1018.5
20260507153006 51 70 0.0 0.0 0.00 0.00 0.00 76 1018.5
20260507152506 51 35 0.0 5.2 0.00 0.00 0.00 76 1018.5
20260507152006 51 43 0.9 5.2 0.00 0.00 0.00 76 1018.5
20260507151506 51 305 0.0 4.3 0.00 0.00 0.00 77 1018.5
20260507151006 51 83 0.0 4.3 0.00 0.00 0.00 77 1018.5
20260507150506 50 282 0.0 0.0 0.00 0.00 0.00 77 1018.5
20260507150006 50 63 0.0 0.0 0.00 0.00 0.00 76 1018.5
20260507145508 50 42 0.0 1.7 0.00 0.00 0.00 77 1018.5
20260507145006 50 64 0.0 1.7 0.00 0.00 0.00 77 1018.5
20260507144506 50 106 0.0 0.0 0.00 0.00 0.00 77 1018.5
20260507144006 50 91 0.0 4.3 0.00 0.00 0.00 77 1018.5
20260507143506 50 51 0.0 4.3 0.00 0.00 0.00 77 1018.5
20260507143006 50 45 0.0 4.3 0.00 0.00 0.00 77 1018.5
20260507142506 50 35 0.0 0.0 0.00 0.00 0.00 78 1018.5
20260507142006 50 90 0.0 0.0 0.00 0.00 0.00 78 1018.5
20260507141506 50 35 0.0 0.0 0.00 0.00 0.00 78 1017.5
20260507141007 50 41 0.0 5.2 0.00 0.00 0.00 79 1017.5
20260507140506 50 66 0.9 5.2 0.00 0.00 0.00 79 1017.5
20260507140006 50 57 0.0 0.0 0.00 0.00 0.00 79 1018.5
20260507135506 50 80 0.0 0.0 0.00 0.00 0.00 79 1018.5
20260507135007 50 80 0.0 0.0 0.00 0.00 0.00 79 1018.5
20260507134506 50 35 0.0 0.0 0.00 0.00 0.00 79 1018.5
20260507134006 50 35 0.0 0.0 0.00 0.00 0.00 79 1018.5
20260507133506 50 65 0.0 0.0 0.00 0.00 0.00 79 1018.5
20260507133005 50 35 0.0 0.0 0.00 0.00 0.00 79 1018.5
20260507132506 50 36 0.0 0.0 0.00 0.00 0.00 79 1018.5
20260507132006 50 305 0.0 0.0 0.00 0.00 0.00 79 1018.5
20260507131506 50 305 0.0 1.7 0.00 0.00 0.00 79 1018.5
20260507130506 50 98 0.0 1.7 0.00 0.00 0.00 79 1018.5
20260507130006 50 61 0.0 0.0 0.00 0.00 0.00 79 1017.5
20260507125506 50 43 0.0 0.0 0.00 0.00 0.00 79 1017.5
20260507125006 50 305 0.0 0.0 0.00 0.00 0.00 79 1017.5
20260507124505 50 105 0.0 0.0 0.00 0.00 0.00 79 1018.5
20260507124006 50 42 0.0 0.0 0.00 0.00 0.00 79 1018.5
20260507123505 50 62 0.0 0.0 0.00 0.00 0.00 79 1018.5
20260507123005 50 139 0.0 0.0 0.00 0.00 0.00 79 1017.5
20260507122505 50 44 0.0 0.0 0.00 0.00 0.00 79 1017.5
20260507121506 50 47 0.0 0.0 0.00 0.00 0.00 79 1018.5
20260507121005 50 35 0.0 0.0 0.00 0.00 0.00 79 1018.5
20260507120006 50 305 0.0 0.0 0.00 0.00 0.00 79 1018.5
20260507115505 50 305 0.0 0.0 0.00 0.00 0.00 79 1018.5
20260507115006 51 123 0.0 0.0 0.00 0.00 0.00 79 1018.5
20260507114505 51 170 0.0 0.0 0.00 0.00 0.00 79 1018.5
20260507114006 51 167 0.0 0.0 0.00 0.00 0.00 79 1018.5
20260507113507 51 58 0.0 0.0 0.00 0.00 0.00 80 1018.5
20260507113006 51 125 0.0 5.2 0.00 0.00 0.00 80 1018.5
20260507112505 51 50 0.0 5.2 0.00 0.00 0.00 80 1018.5
20260507112005 51 101 0.0 5.2 0.00 0.00 0.00 80 1018.5
20260507111506 51 117 0.0 0.0 0.00 0.00 0.00 81 1018.5
20260507111005 51 166 0.0 0.0 0.00 0.00 0.00 81 1018.5
20260507110506 51 305 0.0 0.0 0.00 0.00 0.00 81 1018.5
20260507110005 51 192 0.0 0.0 0.00 0.00 0.00 81 1018.5
20260507105505 51 112 0.0 0.0 0.00 0.00 0.00 81 1018.5
20260507105006 51 80 0.0 0.0 0.00 0.00 0.00 81 1018.5
20260507104506 51 58 0.0 0.0 0.00 0.00 0.00 81 1018.5
20260507103505 51 282 0.0 0.0 0.00 0.00 0.00 80 1018.5
20260507103006 51 80 0.0 0.0 0.00 0.00 0.00 80 1019.5
20260507101507 52 63 0.0 2.6 0.00 0.00 0.00 80 1019.5
20260507101005 52 305 0.0 2.6 0.00 0.00 0.00 80 1019.5
20260507100005 52 304 0.0 0.0 0.00 0.00 0.00 80 1019.5
20260507095505 52 50 0.0 0.0 0.00 0.00 0.00 80 1019.5
20260507095005 52 35 0.0 0.0 0.00 0.00 0.00 80 1019.5
20260507094505 52 98 0.0 0.0 0.00 0.00 0.00 80 1019.5
20260507094005 52 82 0.0 0.0 0.00 0.00 0.00 81 1019.5
20260507093005 52 148 0.0 0.0 0.00 0.00 0.00 81 1019.5
20260507092505 52 35 0.0 0.0 0.00 0.00 0.00 81 1019.5
20260507092005 52 47 0.0 0.0 0.00 0.00 0.00 81 1019.5
20260507091506 52 111 0.0 0.0 0.00 0.00 0.00 81 1019.5
20260507091005 52 215 0.0 0.0 0.00 0.00 0.00 81 1019.5
20260507090006 52 215 0.0 0.0 0.00 0.00 0.00 81 1020.5
20260507085505 53 282 0.0 0.0 0.00 0.00 0.00 81 1020.5
20260507085006 53 282 0.0 0.0 0.00 0.00 0.00 81 1020.5
20260507084006 53 270 0.0 0.0 0.00 0.00 0.00 81 1019.5
20260507083506 53 87 0.0 0.0 0.00 0.00 0.00 81 1019.5
20260507083005 53 35 0.0 0.0 0.00 0.00 0.00 81 1020.5
20260507082506 53 123 0.0 0.0 0.00 0.00 0.00 82 1020.5
20260507082005 53 192 0.0 0.0 0.00 0.00 0.00 82 1020.5
20260507081505 53 84 0.0 0.0 0.00 0.00 0.00 82 1020.5
20260507081005 53 204 0.0 0.0 0.00 0.00 0.00 82 1020.5
20260507080505 53 61 0.0 0.0 0.00 0.00 0.00 82 1020.5
20260507080005 53 148 0.0 0.0 0.00 0.00 0.00 81 1019.5
20260507075505 53 136 0.0 0.0 0.00 0.00 0.00 81 1019.5
20260507075005 53 116 0.0 0.0 0.00 0.00 0.00 82 1019.5
20260507074505 53 69 0.0 0.0 0.00 0.00 0.00 81 1020.5
20260507074005 53 58 0.0 0.0 0.00 0.00 0.00 81 1020.5
20260507073505 53 101 0.0 0.0 0.00 0.00 0.00 81 1020.5
20260507073006 53 134 0.0 0.0 0.00 0.00 0.00 81 1019.5
20260507072505 53 89 0.0 0.0 0.00 0.00 0.00 81 1019.5
20260507072006 53 230 0.0 0.0 0.00 0.00 0.00 81 1019.5
20260507071505 53 177 0.0 0.0 0.00 0.00 0.00 81 1019.5
20260507071005 53 35 0.0 0.0 0.00 0.00 0.00 81 1019.5
20260507070505 53 125 0.0 0.0 0.00 0.00 0.00 81 1019.5
20260507070010 53 145 0.0 0.0 0.00 0.00 0.00 81 1020.5
20260507065506 53 73 0.0 0.0 0.00 0.00 0.00 80 1020.5
20260507065006 53 191 0.0 0.0 0.00 0.00 0.00 80 1020.5
20260507064505 53 70 0.0 0.0 0.00 0.00 0.00 80 1019.5
20260507064005 53 109 0.0 0.0 0.00 0.00 0.00 80 1019.5
20260507063505 53 72 0.0 0.0 0.00 0.00 0.00 80 1019.5
20260507061505 53 138 0.0 4.3 0.00 0.00 0.00 80 1020.5
20260507061005 53 53 0.0 0.0 0.00 0.00 0.00 80 1020.5
20260507060505 53 305 0.0 0.0 0.00 0.00 0.00 80 1020.5
20260507060004 54 109 0.0 4.3 0.00 0.00 0.00 79 1020.5
20260507055005 54 52 0.9 4.3 0.00 0.00 0.00 79 1020.5
20260507054505 54 70 0.0 5.2 0.00 0.00 0.00 79 1020.5
20260507054005 54 333 0.9 5.2 0.00 0.00 0.00 79 1020.5
20260507053506 54 148 0.0 0.0 0.00 0.00 0.00 78 1020.5
20260507052505 54 267 0.0 4.3 0.00 0.00 0.00 78 1019.5
20260507052005 54 115 0.0 0.0 0.00 0.00 0.00 78 1019.5
20260507051505 55 76 0.0 1.7 0.00 0.00 0.00 78 1020.5
20260507051005 55 112 0.0 1.7 0.00 0.00 0.00 78 1020.5
20260507050505 55 114 0.0 0.0 0.00 0.00 0.00 78 1020.5
20260507050005 55 145 0.0 0.0 0.00 0.00 0.00 78 1020.5
20260507045505 55 111 0.0 4.3 0.00 0.00 0.00 77 1020.5
20260507045004 55 305 0.0 4.3 0.00 0.00 0.00 77 1020.5
20260507044505 55 116 0.9 4.3 0.00 0.00 0.00 77 1020.5
20260507044005 55 25 0.0 4.3 0.00 0.00 0.00 77 1020.5
20260507043505 56 72 0.0 7.8 0.00 0.00 0.00 76 1020.5
20260507042505 56 131 0.0 5.2 0.00 0.00 0.00 77 1019.5
20260507042005 56 78 0.0 5.2 0.00 0.00 0.00 77 1019.5
20260507041005 56 48 0.0 4.3 0.00 0.00 0.00 77 1019.5
20260507040504 57 103 0.0 4.3 0.00 0.00 0.00 77 1019.5
20260507035505 57 103 0.0 4.3 0.00 0.00 0.00 77 1018.5
20260507035005 57 69 0.0 0.0 0.00 0.00 0.00 77 1018.5
20260507034505 57 74 0.0 4.3 0.00 0.00 0.00 77 1018.5
20260507034006 57 92 0.0 4.3 0.00 0.00 0.00 76 1018.5
20260507033505 57 64 0.0 1.7 0.00 0.00 0.00 76 1018.5
20260507033005 57 305 0.0 1.7 0.00 0.00 0.00 76 1018.5
20260507032505 57 75 0.0 0.0 0.00 0.00 0.00 76 1018.5
20260507032004 57 43 0.0 0.0 0.00 0.00 0.00 76 1018.5
20260507031005 58 49 0.0 0.0 0.00 0.00 0.00 75 1018.5
20260507030505 58 54 0.0 0.0 0.00 0.00 0.00 75 1018.5
20260507030004 58 8 0.0 0.0 0.00 0.00 0.00 75 1018.5
20260507025004 59 58 0.0 0.0 0.00 0.00 0.00 74 1018.5
20260507024005 59 1 0.0 0.0 0.00 0.00 0.00 73 1018.5
20260507023505 60 98 0.0 6.1 0.00 0.00 0.00 73 1018.5
20260507023004 60 43 0.0 6.1 0.00 0.00 0.00 73 1018.5
20260507022504 60 35 0.0 0.0 0.00 0.00 0.00 73 1018.5
20260507021505 61 65 0.0 5.2 0.00 0.00 0.00 73 1017.5
20260507020505 61 82 0.0 5.2 0.00 0.00 0.00 72 1017.5
20260507015504 62 81 0.0 2.6 0.00 0.00 0.00 72 1018.5
20260507015004 62 343 0.0 4.3 0.00 0.00 0.00 72 1018.5